Wetterdaten: aktuell Samstag, 20.07.2019 09:34
Datum Zeit Temp. 2m Temp. 5cm Temp. -10cm Feuchte 2m Luftdruck Regen Wind Richtung Richtung Taupunkt Windchill Windben
20.07.2019 09:34 25,1 C 27,9 C 18,3 C 58 % 1018,3 hPa 0,0 l/m 1,3 km/h (1 Bft) NW 315 16,2 C 25,1 C 3,3 km/h (1 Bft)
20.07.2019 09:32 25,1 C 28,2 C 18,3 C 58 % 1018,3 hPa 0,0 l/m 1,0 km/h (0 Bft) NW 315 16,2 C 25,1 C 3,9 km/h (1 Bft)
20.07.2019 09:30 25,0 C 28,2 C 18,3 C 59 % 1018,3 hPa 0,0 l/m 0,5 km/h (0 Bft) W-NW 292 16,4 C 25,0 C 3,9 km/h (1 Bft)
20.07.2019 09:28 25,1 C 27,9 C 18,2 C 59 % 1018,3 hPa 0,0 l/m 0,3 km/h (0 Bft) NW 315 16,5 C 25,1 C 3,5 km/h (1 Bft)
20.07.2019 09:26 24,9 C 27,5 C 18,2 C 60 % 1018,2 hPa 0,0 l/m 0,2 km/h (0 Bft) W-NW 292 16,6 C 24,9 C 0,0 km/h (0 Bft)
20.07.2019 09:24 24,9 C 27,0 C 18,2 C 60 % 1018,2 hPa 0,0 l/m 0,2 km/h (0 Bft) O-SO 112 16,6 C 24,9 C 0,0 km/h (0 Bft)
20.07.2019 09:22 24,6 C 27,4 C 18,2 C 60 % 1018,2 hPa 0,0 l/m 0,2 km/h (0 Bft) N 360 16,3 C 24,6 C 0,0 km/h (0 Bft)
20.07.2019 09:20 24,6 C 27,3 C 18,2 C 61 % 1018,2 hPa 0,0 l/m 0,2 km/h (0 Bft) W 270 16,6 C 24,6 C 2,1 km/h (1 Bft)
20.07.2019 09:18 24,4 C 27,0 C 18,1 C 61 % 1018,2 hPa 0,0 l/m 0,2 km/h (0 Bft) N-NW 337 16,4 C 24,4 C 2,1 km/h (1 Bft)
20.07.2019 09:16 24,2 C 26,6 C 18,1 C 61 % 1018,2 hPa 0,0 l/m 0,0 km/h (0 Bft) N 360 16,2 C 24,2 C 0,0 km/h (0 Bft)
20.07.2019 09:14 24,0 C 26,6 C 18,1 C 61 % 1018,2 hPa 0,0 l/m 0,0 km/h (0 Bft) O-NO 67 16,0 C 24,0 C 0,0 km/h (0 Bft)
20.07.2019 09:12 23,9 C 26,6 C 18,1 C 62 % 1018,2 hPa 0,0 l/m 0,0 km/h (0 Bft) SO 135 16,2 C 23,9 C 0,0 km/h (0 Bft)
20.07.2019 09:10 23,6 C 26,4 C 18,2 C 62 % 1018,2 hPa 0,0 l/m 0,0 km/h (0 Bft) O-NO 67 15,9 C 23,6 C 0,0 km/h (0 Bft)
20.07.2019 09:08 23,5 C 26,3 C 18,2 C 62 % 1018,2 hPa 0,0 l/m 0,0 km/h (0 Bft) S-SO 157 15,8 C 23,5 C 0,0 km/h (0 Bft)
20.07.2019 09:06 23,3 C 26,1 C 18,1 C 63 % 1018,2 hPa 0,0 l/m 0,0 km/h (0 Bft) O-SO 112 15,9 C 23,3 C 0,0 km/h (0 Bft)
20.07.2019 09:04 23,0 C 26,0 C 18,1 C 63 % 1018,2 hPa 0,0 l/m 0,2 km/h (0 Bft) W-NW 292 15,6 C 23,0 C 0,0 km/h (0 Bft)
20.07.2019 09:02 22,7 C 25,8 C 18,1 C 66 % 1018,2 hPa 0,0 l/m 0,6 km/h (0 Bft) O-NO 67 16,0 C 22,7 C 0,0 km/h (0 Bft)
20.07.2019 09:00 22,4 C 25,8 C 18,1 C 67 % 1018,2 hPa 0,0 l/m 1,1 km/h (1 Bft) NO 45 16,0 C 22,4 C 0,0 km/h (0 Bft)
20.07.2019 08:58 22,4 C 25,6 C 18,1 C 68 % 1018,2 hPa 0,0 l/m 1,4 km/h (1 Bft) O-SO 112 16,2 C 22,4 C 0,0 km/h (0 Bft)
20.07.2019 08:56 22,1 C 25,3 C 18,1 C 68 % 1018,2 hPa 0,0 l/m 1,9 km/h (1 Bft) O-NO 67 15,9 C 22,1 C 1,9 km/h (1 Bft)
20.07.2019 08:54 22,0 C 24,9 C 18,1 C 69 % 1018,2 hPa 0,0 l/m 2,3 km/h (1 Bft) O-NO 67 16,0 C 22,0 C 2,7 km/h (1 Bft)
20.07.2019 08:52 21,7 C 24,8 C 18,0 C 69 % 1018,2 hPa 0,0 l/m 2,1 km/h (1 Bft) O-NO 67 15,8 C 21,7 C 3,3 km/h (1 Bft)
20.07.2019 08:50 21,7 C 24,5 C 18,0 C 69 % 1018,2 hPa 0,0 l/m 1,8 km/h (1 Bft) O-NO 67 15,8 C 21,7 C 3,3 km/h (1 Bft)
20.07.2019 08:48 21,7 C 24,0 C 18,1 C 70 % 1018,2 hPa 0,0 l/m 1,3 km/h (1 Bft) O-NO 67 16,0 C 21,7 C 2,9 km/h (1 Bft)
20.07.2019 08:46 21,5 C 23,6 C 18,1 C 70 % 1018,0 hPa 0,0 l/m 0,6 km/h (0 Bft) O-NO 67 15,8 C 21,5 C 2,9 km/h (1 Bft)
20.07.2019 08:44 21,4 C 23,4 C 18,1 C 70 % 1018,0 hPa 0,0 l/m 0,5 km/h (0 Bft) O-NO 67 15,7 C 21,4 C 2,5 km/h (1 Bft)
20.07.2019 08:42 21,3 C 23,1 C 18,1 C 70 % 1018,0 hPa 0,0 l/m 0,2 km/h (0 Bft) O-NO 67 15,6 C 21,3 C 2,3 km/h (1 Bft)
20.07.2019 08:40 21,2 C 22,8 C 18,1 C 71 % 1018,0 hPa 0,0 l/m 0,2 km/h (0 Bft) O-NO 67 15,7 C 21,2 C 0,0 km/h (0 Bft)
20.07.2019 08:38 21,1 C 22,8 C 18,1 C 71 % 1018,0 hPa 0,0 l/m 0,3 km/h (0 Bft) O-SO 112 15,6 C 21,1 C 0,0 km/h (0 Bft)
20.07.2019 08:36 20,9 C 22,7 C 18,0 C 71 % 1018,0 hPa 0,0 l/m 0,6 km/h (0 Bft) O-NO 67 15,4 C 20,9 C 0,0 km/h (0 Bft)
20.07.2019 08:34 20,8 C 22,6 C 18,0 C 72 % 1018,0 hPa 0,0 l/m 0,8 km/h (0 Bft) O-NO 67 15,6 C 20,8 C 1,9 km/h (1 Bft)
20.07.2019 08:32 20,6 C 22,5 C 18,0 C 72 % 1018,0 hPa 0,0 l/m 1,1 km/h (1 Bft) NO 45 15,4 C 20,6 C 1,9 km/h (1 Bft)
20.07.2019 08:30 20,5 C 22,4 C 18,0 C 72 % 1018,0 hPa 0,0 l/m 1,0 km/h (0 Bft) O 90 15,3 C 20,5 C 2,3 km/h (1 Bft)
20.07.2019 08:28 20,4 C 22,2 C 18,0 C 72 % 1018,0 hPa 0,0 l/m 1,1 km/h (1 Bft) O-NO 67 15,2 C 20,4 C 2,3 km/h (1 Bft)
20.07.2019 08:26 20,2 C 22,2 C 18,0 C 73 % 1017,9 hPa 0,0 l/m 0,6 km/h (0 Bft) O-NO 67 15,2 C 20,2 C 2,3 km/h (1 Bft)
20.07.2019 08:24 20,1 C 22,4 C 18,0 C 73 % 1017,9 hPa 0,0 l/m 0,5 km/h (0 Bft) O-NO 67 15,1 C 20,1 C 2,3 km/h (1 Bft)
20.07.2019 08:22 20,0 C 22,6 C 18,0 C 73 % 1017,9 hPa 0,0 l/m 0,3 km/h (0 Bft) O-NO 67 15,0 C 20,0 C 2,3 km/h (1 Bft)
20.07.2019 08:20 19,9 C 22,6 C 18,0 C 73 % 1017,9 hPa 0,0 l/m 0,2 km/h (0 Bft) O-NO 67 14,9 C 19,9 C 2,3 km/h (1 Bft)
20.07.2019 08:18 19,7 C 22,4 C 18,0 C 74 % 1017,9 hPa 0,0 l/m 0,2 km/h (0 Bft) O-NO 67 14,9 C 19,7 C 2,3 km/h (1 Bft)
20.07.2019 08:16 19,4 C 22,3 C 18,0 C 74 % 1017,9 hPa 0,0 l/m 0,0 km/h (0 Bft) O-NO 67 14,6 C 19,4 C 0,0 km/h (0 Bft)
20.07.2019 08:14 19,1 C 22,1 C 18,0 C 75 % 1017,9 hPa 0,0 l/m 0,2 km/h (0 Bft) N 360 14,6 C 19,1 C 0,0 km/h (0 Bft)
20.07.2019 08:12 19,1 C 22,0 C 18,0 C 75 % 1017,9 hPa 0,0 l/m 0,2 km/h (0 Bft) O-SO 112 14,6 C 19,1 C 0,0 km/h (0 Bft)
20.07.2019 08:10 18,9 C 21,7 C 18,0 C 76 % 1017,9 hPa 0,0 l/m 0,5 km/h (0 Bft) O 90 14,6 C 18,9 C 0,0 km/h (0 Bft)
20.07.2019 08:08 18,6 C 21,4 C 18,0 C 76 % 1017,9 hPa 0,0 l/m 0,5 km/h (0 Bft) O-NO 67 14,3 C 18,6 C 0,0 km/h (0 Bft)
20.07.2019 08:06 18,2 C 21,2 C 18,0 C 77 % 1017,9 hPa 0,0 l/m 0,5 km/h (0 Bft) W 270 14,1 C 18,2 C 2,1 km/h (1 Bft)
20.07.2019 08:04 17,8 C 20,9 C 18,0 C 77 % 1017,9 hPa 0,0 l/m 0,5 km/h (0 Bft) O-NO 67 13,7 C 17,8 C 2,1 km/h (1 Bft)
20.07.2019 08:02 17,7 C 20,8 C 18,0 C 77 % 1017,9 hPa 0,0 l/m 0,3 km/h (0 Bft) O-NO 67 13,6 C 17,7 C 2,1 km/h (1 Bft)
20.07.2019 08:00 17,5 C 20,4 C 18,0 C 77 % 1017,9 hPa 0,0 l/m 0,2 km/h (0 Bft) O-NO 67 13,4 C 17,5 C 2,1 km/h (1 Bft)
20.07.2019 07:58 17,3 C 20,6 C 18,0 C 78 % 1017,9 hPa 0,0 l/m 0,0 km/h (0 Bft) O-NO 67 13,4 C 17,3 C 0,0 km/h (0 Bft)
20.07.2019 07:56 17,2 C 20,4 C 18,0 C 78 % 1017,9 hPa 0,0 l/m 0,0 km/h (0 Bft) O 90 13,3 C 17,2 C 0,0 km/h (0 Bft)
20.07.2019 07:54 17,1 C 19,9 C 18,1 C 78 % 1017,9 hPa 0,0 l/m 0,0 km/h (0 Bft) O-SO 112 13,2 C 17,1 C 0,0 km/h (0 Bft)
20.07.2019 07:52 17,0 C 19,8 C 18,1 C 79 % 1017,9 hPa 0,0 l/m 0,0 km/h (0 Bft) O 90 13,3 C 17,0 C 0,0 km/h (0 Bft)
20.07.2019 07:50 16,9 C 20,1 C 18,0 C 79 % 1017,9 hPa 0,0 l/m 0,0 km/h (0 Bft) O 90 13,2 C 16,9 C 0,0 km/h (0 Bft)
20.07.2019 07:48 16,8 C 19,8 C 18,0 C 79 % 1017,9 hPa 0,0 l/m 0,0 km/h (0 Bft) O 90 13,1 C 16,8 C 0,0 km/h (0 Bft)
20.07.2019 07:46 16,6 C 19,6 C 18,0 C 79 % 1017,8 hPa 0,0 l/m 0,0 km/h (0 Bft) SO 135 12,9 C 16,6 C 0,0 km/h (0 Bft)
20.07.2019 07:44 16,5 C 19,3 C 18,0 C 79 % 1017,8 hPa 0,0 l/m 0,0 km/h (0 Bft) NW 315 12,8 C 16,5 C 0,0 km/h (0 Bft)
20.07.2019 07:42 16,3 C 19,0 C 18,0 C 80 % 1017,8 hPa 0,0 l/m 0,0 km/h (0 Bft) O-SO 112 12,8 C 16,3 C 0,0 km/h (0 Bft)
20.07.2019 07:40 16,2 C 18,9 C 18,0 C 80 % 1017,8 hPa 0,0 l/m 0,0 km/h (0 Bft) O 90 12,7 C 16,2 C 0,0 km/h (0 Bft)
20.07.2019 07:38 15,9 C 18,8 C 18,0 C 81 % 1017,8 hPa 0,0 l/m 0,0 km/h (0 Bft) O-NO 67 12,6 C 15,9 C 0,0 km/h (0 Bft)
20.07.2019 07:36 15,9 C 18,4 C 18,0 C 81 % 1017,8 hPa 0,0 l/m 0,3 km/h (0 Bft) O 90 12,6 C 15,9 C 0,0 km/h (0 Bft)
20.07.2019 07:34 15,8 C 18,2 C 18,0 C 81 % 1017,8 hPa 0,0 l/m 0,5 km/h (0 Bft) O-NO 67 12,5 C 15,8 C 0,0 km/h (0 Bft)
20.07.2019 07:32 15,5 C 18,0 C 18,0 C 81 % 1017,8 hPa 0,0 l/m 0,6 km/h (0 Bft) O 90 12,3 C 15,5 C 0,0 km/h (0 Bft)
20.07.2019 07:30 15,4 C 17,7 C 18,0 C 81 % 1017,8 hPa 0,0 l/m 0,6 km/h (0 Bft) O 90 12,2 C 15,4 C 0,0 km/h (0 Bft)
20.07.2019 07:28 15,3 C 17,2 C 18,0 C 81 % 1017,8 hPa 0,0 l/m 0,6 km/h (0 Bft) O-NO 67 12,1 C 15,3 C 2,9 km/h (1 Bft)
20.07.2019 07:26 15,2 C 17,0 C 18,0 C 81 % 1017,9 hPa 0,0 l/m 0,3 km/h (0 Bft) O-NO 67 12,0 C 15,2 C 2,9 km/h (1 Bft)
20.07.2019 07:24 15,1 C 16,4 C 18,0 C 81 % 1017,9 hPa 0,0 l/m 0,0 km/h (0 Bft) O-NO 67 11,9 C 15,1 C 1,9 km/h (1 Bft)
20.07.2019 07:22 15,0 C 15,6 C 18,0 C 81 % 1017,9 hPa 0,0 l/m 0,0 km/h (0 Bft) O-NO 67 11,8 C 15,0 C 0,0 km/h (0 Bft)
20.07.2019 07:20 14,7 C 15,3 C 18,0 C 81 % 1017,9 hPa 0,0 l/m 0,0 km/h (0 Bft) W-SW 247 11,5 C 14,7 C 0,0 km/h (0 Bft)
20.07.2019 07:18 14,7 C 15,0 C 18,0 C 81 % 1017,9 hPa 0,0 l/m 0,0 km/h (0 Bft) O 90 11,5 C 14,7 C 0,0 km/h (0 Bft)
20.07.2019 07:16 14,8 C 14,6 C 18,0 C 82 % 1017,9 hPa 0,0 l/m 0,0 km/h (0 Bft) O 90 11,8 C 14,8 C 0,0 km/h (0 Bft)
20.07.2019 07:14 14,8 C 14,6 C 18,0 C 82 % 1017,9 hPa 0,0 l/m 0,0 km/h (0 Bft) S 180 11,8 C 14,8 C 0,0 km/h (0 Bft)
20.07.2019 07:12 14,5 C 14,5 C 18,0 C 82 % 1017,9 hPa 0,0 l/m 0,0 km/h (0 Bft) N-NW 337 11,5 C 14,5 C 0,0 km/h (0 Bft)
20.07.2019 07:10 14,4 C 14,5 C 18,0 C 82 % 1017,9 hPa 0,0 l/m 0,0 km/h (0 Bft) NW 315 11,4 C 14,4 C 0,0 km/h (0 Bft)
20.07.2019 07:08 14,3 C 14,6 C 18,0 C 82 % 1017,9 hPa 0,0 l/m 0,0 km/h (0 Bft) N-NW 337 11,3 C 14,3 C 0,0 km/h (0 Bft)
20.07.2019 07:06 14,2 C 14,5 C 18,1 C 82 % 1017,8 hPa 0,0 l/m 0,0 km/h (0 Bft) W 270 11,2 C 14,2 C 0,0 km/h (0 Bft)
20.07.2019 07:04 14,2 C 14,4 C 18,1 C 82 % 1017,8 hPa 0,0 l/m 0,0 km/h (0 Bft) S-SO 157 11,2 C 14,2 C 0,0 km/h (0 Bft)
20.07.2019 07:02 14,3 C 14,5 C 18,1 C 82 % 1017,8 hPa 0,0 l/m 0,0 km/h (0 Bft) SO 135 11,3 C 14,3 C 0,0 km/h (0 Bft)
20.07.2019 07:00 14,3 C 14,6 C 18,1 C 82 % 1017,8 hPa 0,0 l/m 0,0 km/h (0 Bft) O-NO 67 11,3 C 14,3 C 0,0 km/h (0 Bft)
20.07.2019 06:58 14,2 C 14,5 C 18,1 C 82 % 1017,8 hPa 0,0 l/m 0,0 km/h (0 Bft) O-NO 67 11,2 C 14,2 C 0,0 km/h (0 Bft)
20.07.2019 06:56 14,2 C 14,5 C 18,1 C 82 % 1017,8 hPa 0,0 l/m 0,0 km/h (0 Bft) N-NO 22 11,2 C 14,2 C 0,0 km/h (0 Bft)
20.07.2019 06:54 14,2 C 14,7 C 18,1 C 82 % 1017,8 hPa 0,0 l/m 0,0 km/h (0 Bft) O-SO 112 11,2 C 14,2 C 0,0 km/h (0 Bft)
20.07.2019 06:52 14,1 C 14,8 C 18,1 C 82 % 1017,8 hPa 0,0 l/m 0,0 km/h (0 Bft) S-SO 157 11,1 C 14,1 C 0,0 km/h (0 Bft)
20.07.2019 06:50 14,0 C 14,9 C 18,1 C 82 % 1017,8 hPa 0,0 l/m 0,0 km/h (0 Bft) S-SO 157 11,0 C 14,0 C 0,0 km/h (0 Bft)
20.07.2019 06:48 14,0 C 15,0 C 18,1 C 82 % 1017,8 hPa 0,0 l/m 0,0 km/h (0 Bft) S-SO 157 11,0 C 14,0 C 0,0 km/h (0 Bft)
20.07.2019 06:46 13,9 C 14,9 C 18,1 C 83 % 1017,8 hPa 0,0 l/m 0,0 km/h (0 Bft) NW 315 11,1 C 13,9 C 0,0 km/h (0 Bft)
20.07.2019 06:44 13,8 C 14,7 C 18,1 C 83 % 1017,8 hPa 0,0 l/m 0,2 km/h (0 Bft) SO 135 11,0 C 13,8 C 0,0 km/h (0 Bft)
20.07.2019 06:42 13,7 C 14,6 C 18,1 C 83 % 1017,8 hPa 0,0 l/m 0,2 km/h (0 Bft) S-SO 157 10,9 C 13,7 C 1,9 km/h (1 Bft)
20.07.2019 06:40 13,7 C 14,5 C 18,1 C 83 % 1017,8 hPa 0,0 l/m 0,2 km/h (0 Bft) W-SW 247 10,9 C 13,7 C 1,9 km/h (1 Bft)
20.07.2019 06:38 13,7 C 14,6 C 18,1 C 82 % 1017,8 hPa 0,0 l/m 0,0 km/h (0 Bft) W-NW 292 10,7 C 13,7 C 0,0 km/h (0 Bft)
20.07.2019 06:36 13,5 C 14,7 C 18,1 C 82 % 1017,8 hPa 0,0 l/m 0,0 km/h (0 Bft) O-SO 112 10,5 C 13,5 C 0,0 km/h (0 Bft)
20.07.2019 06:34 13,8 C 14,8 C 18,1 C 82 % 1017,8 hPa 0,0 l/m 0,0 km/h (0 Bft) N-NO 22 10,8 C 13,8 C 0,0 km/h (0 Bft)
20.07.2019 06:32 13,7 C 14,7 C 18,1 C 82 % 1017,8 hPa 0,0 l/m 0,0 km/h (0 Bft) NO 45 10,7 C 13,7 C 0,0 km/h (0 Bft)
20.07.2019 06:30 13,4 C 14,6 C 18,1 C 82 % 1017,8 hPa 0,0 l/m 0,0 km/h (0 Bft) O-NO 67 10,4 C 13,4 C 0,0 km/h (0 Bft)
20.07.2019 06:28 13,3 C 14,4 C 18,1 C 82 % 1017,8 hPa 0,0 l/m 0,0 km/h (0 Bft) N-NW 337 10,3 C 13,3 C 0,0 km/h (0 Bft)
20.07.2019 06:26 13,4 C 14,2 C 18,1 C 82 % 1017,7 hPa 0,0 l/m 0,0 km/h (0 Bft) SW 225 10,4 C 13,4 C 0,0 km/h (0 Bft)
20.07.2019 06:24 13,3 C 14,0 C 18,1 C 82 % 1017,7 hPa 0,0 l/m 0,0 km/h (0 Bft) NW 315 10,3 C 13,3 C 0,0 km/h (0 Bft)
20.07.2019 06:22 13,1 C 13,7 C 18,1 C 82 % 1017,7 hPa 0,0 l/m 0,0 km/h (0 Bft) W 270 10,1 C 13,1 C 0,0 km/h (0 Bft)
20.07.2019 06:20 13,3 C 13,7 C 18,1 C 82 % 1017,7 hPa 0,0 l/m 0,0 km/h (0 Bft) SO 135 10,3 C 13,3 C 0,0 km/h (0 Bft)
20.07.2019 06:18 13,0 C 13,5 C 18,1 C 82 % 1017,7 hPa 0,0 l/m 0,0 km/h (0 Bft) S-SW 202 10,0 C 13,0 C 0,0 km/h (0 Bft)
20.07.2019 06:16 13,1 C 13,5 C 18,1 C 82 % 1017,7 hPa 0,0 l/m 0,0 km/h (0 Bft) SW 225 10,1 C 13,1 C 0,0 km/h (0 Bft)
20.07.2019 06:14 13,3 C 13,4 C 18,1 C 82 % 1017,7 hPa 0,0 l/m 0,0 km/h (0 Bft) O-SO 112 10,3 C 13,3 C 0,0 km/h (0 Bft)
20.07.2019 06:12 13,3 C 13,3 C 18,1 C 82 % 1017,7 hPa 0,0 l/m 0,0 km/h (0 Bft) O-NO 67 10,3 C 13,3 C 0,0 km/h (0 Bft)
20.07.2019 06:10 13,0 C 13,2 C 18,3 C 82 % 1017,7 hPa 0,0 l/m 0,0 km/h (0 Bft) O-NO 67 10,0 C 13,0 C 0,0 km/h (0 Bft)
20.07.2019 06:08 13,0 C 13,2 C 18,3 C 82 % 1017,7 hPa 0,0 l/m 0,0 km/h (0 Bft) O-NO 67 10,0 C 13,0 C 0,0 km/h (0 Bft)
20.07.2019 06:06 13,0 C 13,2 C 18,3 C 82 % 1017,4 hPa 0,0 l/m 0,0 km/h (0 Bft) O-NO 67 10,0 C 13,0 C 0,0 km/h (0 Bft)
20.07.2019 06:04 13,0 C 13,2 C 18,3 C 82 % 1017,4 hPa 0,0 l/m 0,0 km/h (0 Bft) O-NO 67 10,0 C 13,0 C 0,0 km/h (0 Bft)
20.07.2019 06:02 13,0 C 13,2 C 18,3 C 82 % 1017,4 hPa 0,0 l/m 0,0 km/h (0 Bft) O-NO 67 10,0 C 13,0 C 0,0 km/h (0 Bft)
20.07.2019 06:00 13,1 C 13,2 C 18,3 C 82 % 1017,4 hPa 0,0 l/m 0,0 km/h (0 Bft) W-NW 292 10,1 C 13,1 C 0,0 km/h (0 Bft)
20.07.2019 05:58 13,0 C 13,0 C 18,3 C 82 % 1017,4 hPa 0,0 l/m 0,0 km/h (0 Bft) W 270 10,0 C 13,0 C 0,0 km/h (0 Bft)
20.07.2019 05:56 13,1 C 12,9 C 18,3 C 82 % 1017,4 hPa 0,0 l/m 0,0 km/h (0 Bft) O-SO 112 10,1 C 13,1 C 0,0 km/h (0 Bft)
20.07.2019 05:54 13,0 C 12,9 C 18,3 C 82 % 1017,4 hPa 0,0 l/m 0,0 km/h (0 Bft) SO 135 10,0 C 13,0 C 0,0 km/h (0 Bft)
20.07.2019 05:52 13,1 C 12,9 C 18,3 C 82 % 1017,4 hPa 0,0 l/m 0,0 km/h (0 Bft) O 90 10,1 C 13,1 C 0,0 km/h (0 Bft)
20.07.2019 05:50 13,0 C 12,9 C 18,3 C 82 % 1017,4 hPa 0,0 l/m 0,0 km/h (0 Bft) N 360 10,0 C 13,0 C 0,0 km/h (0 Bft)
20.07.2019 05:48 12,8 C 12,9 C 18,3 C 83 % 1017,4 hPa 0,0 l/m 0,2 km/h (0 Bft) N 360 10,0 C 12,8 C 0,0 km/h (0 Bft)
20.07.2019 05:46 12,7 C 12,5 C 18,3 C 83 % 1017,7 hPa 0,0 l/m 0,2 km/h (0 Bft) SO 135 9,9 C 12,7 C 0,0 km/h (0 Bft)
20.07.2019 05:44 12,9 C 12,5 C 18,3 C 83 % 1017,7 hPa 0,0 l/m 0,2 km/h (0 Bft) O-SO 112 10,1 C 12,9 C 0,0 km/h (0 Bft)
20.07.2019 05:42 12,8 C 12,4 C 18,3 C 83 % 1017,7 hPa 0,0 l/m 0,2 km/h (0 Bft) NW 315 10,0 C 12,8 C 0,0 km/h (0 Bft)
20.07.2019 05:40 12,5 C 12,3 C 18,3 C 83 % 1017,7 hPa 0,0 l/m 0,2 km/h (0 Bft) O-NO 67 9,7 C 12,5 C 2,3 km/h (1 Bft)
20.07.2019 05:38 12,5 C 12,3 C 18,3 C 83 % 1017,7 hPa 0,0 l/m 0,3 km/h (0 Bft) O-SO 112 9,7 C 12,5 C 2,3 km/h (1 Bft)
20.07.2019 05:36 12,5 C 12,2 C 18,3 C 82 % 1017,7 hPa 0,0 l/m 0,3 km/h (0 Bft) NO 45 9,5 C 12,5 C 0,0 km/h (0 Bft)
20.07.2019 05:34 12,5 C 12,1 C 18,4 C 82 % 1017,7 hPa 0,0 l/m 0,3 km/h (0 Bft) O-SO 112 9,5 C 12,5 C 0,0 km/h (0 Bft)
20.07.2019 05:32 12,3 C 12,0 C 18,4 C 82 % 1017,7 hPa 0,0 l/m 0,5 km/h (0 Bft) W-NW 292 9,3 C 12,3 C 0,0 km/h (0 Bft)
20.07.2019 05:30 12,3 C 12,0 C 18,4 C 82 % 1017,7 hPa 0,0 l/m 0,5 km/h (0 Bft) W-NW 292 9,3 C 12,3 C 3,1 km/h (1 Bft)
20.07.2019 05:28 12,2 C 12,0 C 18,4 C 82 % 1017,7 hPa 0,0 l/m 0,3 km/h (0 Bft) O-NO 67 9,2 C 12,2 C 3,1 km/h (1 Bft)
20.07.2019 05:26 12,4 C 11,8 C 18,4 C 82 % 1017,5 hPa 0,0 l/m 0,2 km/h (0 Bft) O-NO 67 9,4 C 12,4 C 0,0 km/h (0 Bft)
20.07.2019 05:24 12,4 C 11,6 C 18,4 C 82 % 1017,5 hPa 0,0 l/m 0,2 km/h (0 Bft) O-SO 112 9,4 C 12,4 C 3,3 km/h (1 Bft)
20.07.2019 05:22 12,4 C 11,2 C 18,4 C 82 % 1017,5 hPa 0,0 l/m 0,0 km/h (0 Bft) S-SO 157 9,4 C 12,4 C 3,3 km/h (1 Bft)
20.07.2019 05:20 12,4 C 11,1 C 18,4 C 82 % 1017,5 hPa 0,0 l/m 0,0 km/h (0 Bft) W 270 9,4 C 12,4 C 0,0 km/h (0 Bft)
20.07.2019 05:18 12,5 C 11,2 C 18,4 C 82 % 1017,5 hPa 0,0 l/m 0,0 km/h (0 Bft) S 180 9,5 C 12,5 C 0,0 km/h (0 Bft)
20.07.2019 05:16 12,3 C 11,1 C 18,4 C 82 % 1017,5 hPa 0,0 l/m 0,0 km/h (0 Bft) O-NO 67 9,3 C 12,3 C 0,0 km/h (0 Bft)
20.07.2019 05:14 12,4 C 10,9 C 18,4 C 82 % 1017,5 hPa 0,0 l/m 0,0 km/h (0 Bft) SO 135 9,4 C 12,4 C 0,0 km/h (0 Bft)
20.07.2019 05:12 12,6 C 10,8 C 18,4 C 82 % 1017,5 hPa 0,0 l/m 0,0 km/h (0 Bft) O 90 9,6 C 12,6 C 0,0 km/h (0 Bft)
20.07.2019 05:10 12,6 C 10,8 C 18,5 C 82 % 1017,5 hPa 0,0 l/m 0,0 km/h (0 Bft) O-SO 112 9,6 C 12,6 C 0,0 km/h (0 Bft)
20.07.2019 05:08 12,5 C 10,7 C 18,5 C 82 % 1017,5 hPa 0,0 l/m 0,0 km/h (0 Bft) N-NO 22 9,5 C 12,5 C 0,0 km/h (0 Bft)
20.07.2019 05:06 12,6 C 10,6 C 18,5 C 81 % 1017,3 hPa 0,0 l/m 0,0 km/h (0 Bft) O-NO 67 9,4 C 12,6 C 0,0 km/h (0 Bft)
20.07.2019 05:04 12,5 C 10,7 C 18,5 C 81 % 1017,3 hPa 0,0 l/m 0,0 km/h (0 Bft) O-NO 67 9,3 C 12,5 C 0,0 km/h (0 Bft)
20.07.2019 05:01 12,6 C 10,8 C 18,5 C 81 % 1017,3 hPa 0,0 l/m 0,0 km/h (0 Bft) NO 45 9,4 C 12,6 C 0,0 km/h (0 Bft)
20.07.2019 05:00 12,6 C 10,9 C 18,5 C 81 % 1017,3 hPa 0,0 l/m 0,0 km/h (0 Bft) O-SO 112 9,4 C 12,6 C 0,0 km/h (0 Bft)
20.07.2019 04:58 12,6 C 10,7 C 18,5 C 81 % 1017,3 hPa 0,0 l/m 0,2 km/h (0 Bft) SO 135 9,4 C 12,6 C 0,0 km/h (0 Bft)
20.07.2019 04:56 12,7 C 10,8 C 18,5 C 81 % 1017,3 hPa 0,0 l/m 0,2 km/h (0 Bft) O-NO 67 9,5 C 12,7 C 0,0 km/h (0 Bft)
20.07.2019 04:54 12,7 C 11,0 C 18,5 C 81 % 1017,3 hPa 0,0 l/m 0,2 km/h (0 Bft) O-NO 67 9,5 C 12,7 C 0,0 km/h (0 Bft)
20.07.2019 04:52 12,7 C 10,8 C 18,5 C 81 % 1017,3 hPa 0,0 l/m 0,2 km/h (0 Bft) SO 135 9,5 C 12,7 C 0,0 km/h (0 Bft)
20.07.2019 04:50 12,8 C 10,9 C 18,5 C 81 % 1017,3 hPa 0,0 l/m 0,0 km/h (0 Bft) W-SW 247 9,6 C 12,8 C 0,0 km/h (0 Bft)
20.07.2019 04:48 12,6 C 10,7 C 18,6 C 81 % 1017,3 hPa 0,0 l/m 0,3 km/h (0 Bft) NW 315 9,4 C 12,6 C 0,0 km/h (0 Bft)
20.07.2019 04:46 12,7 C 10,7 C 18,5 C 81 % 1017,2 hPa 0,0 l/m 0,3 km/h (0 Bft) S-SW 202 9,5 C 12,7 C 0,0 km/h (0 Bft)
20.07.2019 04:44 12,9 C 10,7 C 18,5 C 81 % 1017,2 hPa 0,0 l/m 0,3 km/h (0 Bft) S-SO 157 9,7 C 12,9 C 0,0 km/h (0 Bft)
20.07.2019 04:42 12,8 C 10,8 C 18,5 C 81 % 1017,2 hPa 0,0 l/m 0,3 km/h (0 Bft) NO 45 9,6 C 12,8 C 0,0 km/h (0 Bft)
20.07.2019 04:40 12,7 C 11,1 C 18,5 C 81 % 1017,2 hPa 0,0 l/m 0,3 km/h (0 Bft) S-SO 157 9,5 C 12,7 C 2,9 km/h (1 Bft)
20.07.2019 04:38 13,0 C 11,2 C 18,5 C 80 % 1017,2 hPa 0,0 l/m 0,3 km/h (0 Bft) O-NO 67 9,6 C 13,0 C 2,9 km/h (1 Bft)
20.07.2019 04:36 13,0 C 11,2 C 18,5 C 80 % 1017,2 hPa 0,0 l/m 0,2 km/h (0 Bft) NW 315 9,6 C 13,0 C 0,0 km/h (0 Bft)
20.07.2019 04:34 12,7 C 11,0 C 18,5 C 81 % 1017,2 hPa 0,0 l/m 0,2 km/h (0 Bft) S-SO 157 9,5 C 12,7 C 2,9 km/h (1 Bft)
20.07.2019 04:32 12,8 C 11,0 C 18,5 C 81 % 1017,2 hPa 0,0 l/m 0,3 km/h (0 Bft) S-SW 202 9,6 C 12,8 C 2,9 km/h (1 Bft)
20.07.2019 04:30 13,4 C 11,2 C 18,5 C 80 % 1017,2 hPa 0,0 l/m 0,6 km/h (0 Bft) SO 135 10,0 C 13,4 C 0,0 km/h (0 Bft)
20.07.2019 04:28 13,1 C 11,2 C 18,5 C 80 % 1017,2 hPa 0,0 l/m 1,0 km/h (0 Bft) W 270 9,7 C 13,1 C 0,0 km/h (0 Bft)
20.07.2019 04:26 13,1 C 11,4 C 18,6 C 80 % 1017,3 hPa 0,0 l/m 1,0 km/h (0 Bft) S-SW 202 9,7 C 13,1 C 0,0 km/h (0 Bft)
20.07.2019 04:24 13,3 C 11,6 C 18,6 C 80 % 1017,3 hPa 0,0 l/m 1,1 km/h (1 Bft) S 180 9,9 C 13,3 C 4,1 km/h (1 Bft)
20.07.2019 04:22 13,3 C 11,6 C 18,6 C 80 % 1017,3 hPa 0,0 l/m 1,1 km/h (1 Bft) O-NO 67 9,9 C 13,3 C 4,1 km/h (1 Bft)
20.07.2019 04:20 13,0 C 11,4 C 18,6 C 80 % 1017,3 hPa 0,0 l/m 0,8 km/h (0 Bft) O-SO 112 9,6 C 13,0 C 4,1 km/h (1 Bft)
20.07.2019 04:18 13,3 C 11,4 C 18,6 C 80 % 1017,3 hPa 0,0 l/m 0,8 km/h (0 Bft) O 90 9,9 C 13,3 C 4,1 km/h (1 Bft)
20.07.2019 04:16 13,0 C 11,2 C 18,6 C 80 % 1017,3 hPa 0,0 l/m 0,8 km/h (0 Bft) N-NW 337 9,6 C 13,0 C 0,0 km/h (0 Bft)
20.07.2019 04:14 13,1 C 11,3 C 18,6 C 80 % 1017,3 hPa 0,0 l/m 1,3 km/h (1 Bft) SO 135 9,7 C 13,1 C 3,3 km/h (1 Bft)
20.07.2019 04:12 13,3 C 11,3 C 18,6 C 80 % 1017,3 hPa 0,0 l/m 1,6 km/h (1 Bft) O-SO 112 9,9 C 13,3 C 3,3 km/h (1 Bft)
20.07.2019 04:10 13,3 C 11,3 C 18,6 C 80 % 1017,3 hPa 0,0 l/m 1,8 km/h (1 Bft) O-NO 67 9,9 C 13,3 C 2,5 km/h (1 Bft)
20.07.2019 04:08 13,3 C 11,4 C 18,6 C 80 % 1017,3 hPa 0,0 l/m 1,4 km/h (1 Bft) O-NO 67 9,9 C 13,3 C 2,5 km/h (1 Bft)
20.07.2019 04:06 13,1 C 11,1 C 18,6 C 79 % 1017,7 hPa 0,0 l/m 1,3 km/h (1 Bft) O-NO 67 9,5 C 13,1 C 3,9 km/h (1 Bft)
20.07.2019 04:04 13,0 C 11,1 C 18,7 C 79 % 1017,7 hPa 0,0 l/m 1,1 km/h (1 Bft) O 90 9,4 C 13,0 C 3,9 km/h (1 Bft)
20.07.2019 04:02 13,1 C 11,3 C 18,7 C 79 % 1017,7 hPa 0,0 l/m 0,5 km/h (0 Bft) O-NO 67 9,5 C 13,1 C 3,1 km/h (1 Bft)
20.07.2019 04:00 13,3 C 11,7 C 18,7 C 79 % 1017,7 hPa 0,0 l/m 0,3 km/h (0 Bft) O-NO 67 9,7 C 13,3 C 0,0 km/h (0 Bft)
20.07.2019 03:58 13,5 C 11,5 C 18,7 C 79 % 1017,7 hPa 0,0 l/m 0,8 km/h (0 Bft) O-NO 67 9,9 C 13,5 C 0,0 km/h (0 Bft)
20.07.2019 03:56 13,3 C 11,6 C 18,7 C 79 % 1017,7 hPa 0,0 l/m 1,4 km/h (1 Bft) S-SW 202 9,7 C 13,3 C 0,0 km/h (0 Bft)
20.07.2019 03:54 13,3 C 12,0 C 18,7 C 79 % 1017,7 hPa 0,0 l/m 2,1 km/h (1 Bft) S 180 9,7 C 13,3 C 0,0 km/h (0 Bft)
20.07.2019 03:52 13,3 C 12,3 C 18,7 C 79 % 1017,7 hPa 0,0 l/m 2,6 km/h (1 Bft) O-NO 67 9,7 C 13,3 C 2,9 km/h (1 Bft)
20.07.2019 03:50 13,3 C 12,3 C 18,7 C 79 % 1017,7 hPa 0,0 l/m 2,9 km/h (1 Bft) SW 225 9,7 C 13,3 C 4,2 km/h (1 Bft)
20.07.2019 03:48 13,7 C 12,3 C 18,7 C 79 % 1017,7 hPa 0,0 l/m 3,1 km/h (1 Bft) S-SW 202 10,1 C 13,7 C 4,2 km/h (1 Bft)
20.07.2019 03:46 13,7 C 12,5 C 18,7 C 79 % 1017,6 hPa 0,0 l/m 2,6 km/h (1 Bft) O-NO 67 10,1 C 13,7 C 4,1 km/h (1 Bft)
20.07.2019 03:44 13,5 C 12,6 C 18,8 C 79 % 1017,6 hPa 0,0 l/m 2,1 km/h (1 Bft) N 360 9,9 C 13,5 C 4,2 km/h (1 Bft)
20.07.2019 03:42 13,8 C 12,4 C 18,8 C 79 % 1017,6 hPa 0,0 l/m 1,9 km/h (1 Bft) O 90 10,2 C 13,8 C 4,2 km/h (1 Bft)
20.07.2019 03:40 13,8 C 12,4 C 18,8 C 79 % 1017,6 hPa 0,0 l/m 1,6 km/h (1 Bft) W-NW 292 10,2 C 13,8 C 6,0 km/h (2 Bft)
20.07.2019 03:38 14,1 C 12,5 C 18,8 C 79 % 1017,6 hPa 0,0 l/m 1,0 km/h (0 Bft) W-NW 292 10,5 C 14,1 C 6,0 km/h (2 Bft)
20.07.2019 03:36 14,2 C 12,9 C 18,8 C 79 % 1017,6 hPa 0,0 l/m 0,6 km/h (0 Bft) S-SW 202 10,6 C 14,2 C 2,7 km/h (1 Bft)
20.07.2019 03:34 14,1 C 13,2 C 18,8 C 79 % 1017,6 hPa 0,0 l/m 1,4 km/h (1 Bft) O-SO 112 10,5 C 14,1 C 2,7 km/h (1 Bft)
20.07.2019 03:32 14,3 C 13,1 C 18,8 C 79 % 1017,6 hPa 0,0 l/m 1,8 km/h (1 Bft) O-SO 112 10,7 C 14,3 C 0,0 km/h (0 Bft)
20.07.2019 03:30 14,1 C 13,3 C 18,8 C 79 % 1017,6 hPa 0,0 l/m 2,7 km/h (1 Bft) O-NO 67 10,5 C 14,1 C 0,0 km/h (0 Bft)
20.07.2019 03:28 14,1 C 13,4 C 18,8 C 79 % 1017,6 hPa 0,0 l/m 4,7 km/h (1 Bft) SW 225 10,5 C 14,1 C 0,0 km/h (0 Bft)
20.07.2019 03:26 14,0 C 13,6 C 18,8 C 79 % 1017,6 hPa 0,0 l/m 6,0 km/h (2 Bft) S 180 10,4 C 14,0 C 6,4 km/h (2 Bft)
20.07.2019 03:24 14,1 C 13,7 C 18,8 C 79 % 1017,6 hPa 0,0 l/m 6,9 km/h (2 Bft) N-NO 22 10,5 C 13,8 C 6,4 km/h (2 Bft)
20.07.2019 03:22 14,4 C 13,8 C 18,8 C 79 % 1017,6 hPa 0,0 l/m 6,0 km/h (2 Bft) W-NW 292 10,8 C 14,4 C 14,3 km/h (3 Bft)
20.07.2019 03:20 14,3 C 13,8 C 18,8 C 79 % 1017,6 hPa 0,0 l/m 6,0 km/h (2 Bft) O-NO 67 10,7 C 14,3 C 14,3 km/h (3 Bft)
20.07.2019 03:18 14,0 C 13,6 C 18,9 C 78 % 1017,6 hPa 0,0 l/m 4,5 km/h (1 Bft) O-NO 67 10,2 C 14,0 C 14,3 km/h (3 Bft)
20.07.2019 03:16 14,0 C 13,4 C 18,9 C 78 % 1017,6 hPa 0,0 l/m 2,9 km/h (1 Bft) O-NO 67 10,2 C 14,0 C 11,0 km/h (2 Bft)
20.07.2019 03:14 14,0 C 13,2 C 18,9 C 78 % 1017,6 hPa 0,0 l/m 1,6 km/h (1 Bft) O-NO 67 10,2 C 14,0 C 6,0 km/h (2 Bft)
20.07.2019 03:12 13,9 C 13,0 C 18,9 C 78 % 1017,6 hPa 0,0 l/m 1,6 km/h (1 Bft) N-NO 22 10,1 C 13,9 C 0,0 km/h (0 Bft)
20.07.2019 03:10 14,1 C 12,6 C 18,9 C 77 % 1017,6 hPa 0,0 l/m 0,2 km/h (0 Bft) O-NO 67 10,1 C 14,1 C 0,0 km/h (0 Bft)
20.07.2019 03:08 14,1 C 12,6 C 18,9 C 77 % 1017,6 hPa 0,0 l/m 0,2 km/h (0 Bft) O-NO 67 10,1 C 14,1 C 0,0 km/h (0 Bft)
20.07.2019 03:06 14,1 C 12,6 C 18,9 C 77 % 1017,6 hPa 0,0 l/m 0,2 km/h (0 Bft) O-NO 67 10,1 C 14,1 C 0,0 km/h (0 Bft)
20.07.2019 03:04 14,1 C 12,6 C 18,9 C 77 % 1017,6 hPa 0,0 l/m 0,2 km/h (0 Bft) O-NO 67 10,1 C 14,1 C 0,0 km/h (0 Bft)
20.07.2019 03:02 14,1 C 12,6 C 18,9 C 77 % 1017,6 hPa 0,0 l/m 0,2 km/h (0 Bft) O-NO 67 10,1 C 14,1 C 0,0 km/h (0 Bft)
20.07.2019 03:00 14,3 C 12,6 C 18,9 C 77 % 1017,6 hPa 0,0 l/m 0,2 km/h (0 Bft) NO 45 10,3 C 14,3 C 0,0 km/h (0 Bft)
20.07.2019 02:58 14,3 C 12,9 C 18,9 C 77 % 1017,6 hPa 0,0 l/m 0,3 km/h (0 Bft) W-NW 292 10,3 C 14,3 C 0,0 km/h (0 Bft)
20.07.2019 02:56 14,3 C 13,0 C 18,9 C 78 % 1017,6 hPa 0,0 l/m 0,3 km/h (0 Bft) W 270 10,5 C 14,3 C 0,0 km/h (0 Bft)
20.07.2019 02:54 14,2 C 13,2 C 19,0 C 78 % 1017,6 hPa 0,0 l/m 0,8 km/h (0 Bft) W-NW 292 10,4 C 14,2 C 0,0 km/h (0 Bft)
20.07.2019 02:52 14,3 C 13,4 C 19,0 C 78 % 1017,6 hPa 0,0 l/m 1,1 km/h (1 Bft) SO 135 10,5 C 14,3 C 0,0 km/h (0 Bft)
20.07.2019 02:50 14,4 C 13,6 C 19,0 C 78 % 1017,6 hPa 0,0 l/m 1,0 km/h (0 Bft) SO 135 10,6 C 14,4 C 1,9 km/h (1 Bft)
20.07.2019 02:48 14,5 C 13,8 C 19,0 C 78 % 1017,6 hPa 0,0 l/m 0,8 km/h (0 Bft) W 270 10,7 C 14,5 C 1,9 km/h (1 Bft)
20.07.2019 02:46 14,5 C 13,7 C 19,0 C 78 % 1017,7 hPa 0,0 l/m 1,1 km/h (1 Bft) O-NO 67 10,7 C 14,5 C 4,1 km/h (1 Bft)
20.07.2019 02:44 14,5 C 13,6 C 19,0 C 78 % 1017,7 hPa 0,0 l/m 1,1 km/h (1 Bft) NW 315 10,7 C 14,5 C 4,1 km/h (1 Bft)
20.07.2019 02:42 14,4 C 13,8 C 19,0 C 78 % 1017,7 hPa 0,0 l/m 0,6 km/h (0 Bft) W-NW 292 10,6 C 14,4 C 3,5 km/h (1 Bft)
20.07.2019 02:40 14,4 C 13,8 C 19,0 C 78 % 1017,7 hPa 0,0 l/m 0,8 km/h (0 Bft) O 90 10,6 C 14,4 C 2,1 km/h (1 Bft)
20.07.2019 02:38 14,6 C 13,7 C 19,0 C 78 % 1017,7 hPa 0,0 l/m 1,0 km/h (0 Bft) W-NW 292 10,8 C 14,6 C 3,7 km/h (1 Bft)
20.07.2019 02:36 14,5 C 13,6 C 19,0 C 78 % 1017,7 hPa 0,0 l/m 1,0 km/h (0 Bft) W-NW 292 10,7 C 14,5 C 3,7 km/h (1 Bft)
20.07.2019 02:34 14,5 C 13,4 C 19,0 C 78 % 1017,7 hPa 0,0 l/m 0,8 km/h (0 Bft) O 90 10,7 C 14,5 C 1,9 km/h (1 Bft)
20.07.2019 02:32 14,6 C 13,4 C 19,0 C 78 % 1017,7 hPa 0,0 l/m 1,0 km/h (0 Bft) N-NO 22 10,8 C 14,6 C 2,9 km/h (1 Bft)
20.07.2019 02:30 14,8 C 13,4 C 19,0 C 78 % 1017,7 hPa 0,0 l/m 0,8 km/h (0 Bft) W-SW 247 11,0 C 14,8 C 3,1 km/h (1 Bft)
20.07.2019 02:28 14,7 C 13,6 C 19,0 C 78 % 1017,7 hPa 0,0 l/m 0,8 km/h (0 Bft) N 360 10,9 C 14,7 C 3,1 km/h (1 Bft)
20.07.2019 02:26 14,4 C 13,8 C 19,0 C 78 % 1017,8 hPa 0,0 l/m 0,5 km/h (0 Bft) S-SO 157 10,6 C 14,4 C 2,3 km/h (1 Bft)
20.07.2019 02:24 14,6 C 13,9 C 19,1 C 77 % 1017,8 hPa 0,0 l/m 0,3 km/h (0 Bft) NO 45 10,6 C 14,6 C 1,9 km/h (1 Bft)
20.07.2019 02:22 14,4 C 13,8 C 19,1 C 77 % 1017,8 hPa 0,0 l/m 0,3 km/h (0 Bft) O-NO 67 10,4 C 14,4 C 1,9 km/h (1 Bft)
20.07.2019 02:20 14,4 C 13,7 C 19,1 C 77 % 1017,8 hPa 0,0 l/m 0,3 km/h (0 Bft) SO 135 10,4 C 14,4 C 0,0 km/h (0 Bft)
20.07.2019 02:18 14,6 C 13,6 C 19,1 C 77 % 1017,8 hPa 0,0 l/m 0,3 km/h (0 Bft) SW 225 10,6 C 14,6 C 0,0 km/h (0 Bft)
20.07.2019 02:16 14,6 C 13,8 C 19,1 C 77 % 1017,8 hPa 0,0 l/m 0,6 km/h (0 Bft) N 360 10,6 C 14,6 C 0,0 km/h (0 Bft)
20.07.2019 02:14 14,7 C 14,0 C 19,1 C 78 % 1017,8 hPa 0,0 l/m 0,8 km/h (0 Bft) O-NO 67 10,9 C 14,7 C 0,0 km/h (0 Bft)
20.07.2019 02:12 14,5 C 13,9 C 19,1 C 78 % 1017,8 hPa 0,0 l/m 1,1 km/h (1 Bft) W 270 10,7 C 14,5 C 0,0 km/h (0 Bft)
20.07.2019 02:10 14,5 C 14,0 C 19,1 C 78 % 1017,8 hPa 0,0 l/m 1,1 km/h (1 Bft) S-SO 157 10,7 C 14,5 C 2,3 km/h (1 Bft)
20.07.2019 02:08 14,4 C 14,1 C 19,1 C 77 % 1017,8 hPa 0,0 l/m 1,4 km/h (1 Bft) NW 315 10,4 C 14,4 C 2,3 km/h (1 Bft)
20.07.2019 02:06 14,4 C 14,2 C 19,1 C 77 % 1017,9 hPa 0,0 l/m 1,8 km/h (1 Bft) O 90 10,4 C 14,4 C 2,3 km/h (1 Bft)
20.07.2019 02:04 14,5 C 14,0 C 19,1 C 77 % 1017,9 hPa 0,0 l/m 1,6 km/h (1 Bft) O-SO 112 10,5 C 14,5 C 2,3 km/h (1 Bft)
20.07.2019 02:02 14,6 C 13,9 C 19,1 C 77 % 1017,9 hPa 0,0 l/m 1,3 km/h (1 Bft) O-NO 67 10,6 C 14,6 C 0,0 km/h (0 Bft)
20.07.2019 02:00 14,2 C 13,8 C 19,1 C 77 % 1017,9 hPa 0,0 l/m 1,1 km/h (1 Bft) O-NO 67 10,2 C 14,2 C 3,7 km/h (1 Bft)
20.07.2019 01:58 14,2 C 13,7 C 19,2 C 77 % 1017,9 hPa 0,0 l/m 1,0 km/h (0 Bft) S-SW 202 10,2 C 14,2 C 4,1 km/h (1 Bft)
20.07.2019 01:56 14,4 C 13,7 C 19,2 C 77 % 1017,9 hPa 0,0 l/m 0,6 km/h (0 Bft) NW 315 10,4 C 14,4 C 4,1 km/h (1 Bft)
20.07.2019 01:54 14,4 C 13,8 C 19,2 C 77 % 1017,9 hPa 0,0 l/m 0,3 km/h (0 Bft) SW 225 10,4 C 14,4 C 0,0 km/h (0 Bft)
20.07.2019 01:52 14,5 C 13,8 C 19,2 C 77 % 1017,9 hPa 0,0 l/m 0,3 km/h (0 Bft) S-SW 202 10,5 C 14,5 C 0,0 km/h (0 Bft)
20.07.2019 01:50 14,4 C 13,8 C 19,2 C 77 % 1017,9 hPa 0,0 l/m 0,3 km/h (0 Bft) NW 315 10,4 C 14,4 C 2,1 km/h (1 Bft)
20.07.2019 01:48 14,2 C 14,0 C 19,2 C 77 % 1017,9 hPa 0,0 l/m 0,3 km/h (0 Bft) W-NW 292 10,2 C 14,2 C 2,1 km/h (1 Bft)
20.07.2019 01:46 14,2 C 14,0 C 19,2 C 77 % 1018,0 hPa 0,0 l/m 0,3 km/h (0 Bft) S-SO 157 10,2 C 14,2 C 0,0 km/h (0 Bft)
20.07.2019 01:44 14,2 C 14,0 C 19,2 C 77 % 1018,0 hPa 0,0 l/m 0,2 km/h (0 Bft) O-NO 67 10,2 C 14,2 C 0,0 km/h (0 Bft)
20.07.2019 01:42 14,2 C 13,9 C 19,2 C 77 % 1018,0 hPa 0,0 l/m 0,6 km/h (0 Bft) O-NO 67 10,2 C 14,2 C 0,0 km/h (0 Bft)
20.07.2019 01:40 14,2 C 13,8 C 19,2 C 77 % 1018,0 hPa 0,0 l/m 0,8 km/h (0 Bft) SO 135 10,2 C 14,2 C 0,0 km/h (0 Bft)
20.07.2019 01:38 14,2 C 13,7 C 19,2 C 77 % 1018,0 hPa 0,0 l/m 0,8 km/h (0 Bft) NO 45 10,2 C 14,2 C 2,3 km/h (1 Bft)
20.07.2019 01:36 14,1 C 13,6 C 19,3 C 77 % 1018,0 hPa 0,0 l/m 0,8 km/h (0 Bft) NW 315 10,1 C 14,1 C 2,5 km/h (1 Bft)
20.07.2019 01:34 14,3 C 13,8 C 19,3 C 77 % 1018,0 hPa 0,0 l/m 1,1 km/h (1 Bft) SW 225 10,3 C 14,3 C 5,8 km/h (2 Bft)
20.07.2019 01:32 14,5 C 14,1 C 19,3 C 77 % 1018,0 hPa 0,0 l/m 1,1 km/h (1 Bft) NW 315 10,5 C 14,5 C 5,8 km/h (2 Bft)
20.07.2019 01:30 14,5 C 14,2 C 19,3 C 77 % 1018,0 hPa 0,0 l/m 1,1 km/h (1 Bft) O-SO 112 10,5 C 14,5 C 2,3 km/h (1 Bft)
20.07.2019 01:28 14,5 C 14,1 C 19,3 C 77 % 1018,0 hPa 0,0 l/m 1,4 km/h (1 Bft) N 360 10,5 C 14,5 C 0,0 km/h (0 Bft)
20.07.2019 01:26 14,5 C 14,0 C 19,3 C 77 % 1018,2 hPa 0,0 l/m 2,1 km/h (1 Bft) O-NO 67 10,5 C 14,5 C 4,4 km/h (1 Bft)
20.07.2019 01:24 14,5 C 13,6 C 19,3 C 77 % 1018,2 hPa 0,0 l/m 2,3 km/h (1 Bft) N-NW 337 10,5 C 14,5 C 4,4 km/h (1 Bft)
20.07.2019 01:22 14,4 C 13,7 C 19,3 C 77 % 1018,2 hPa 0,0 l/m 2,3 km/h (1 Bft) SO 135 10,4 C 14,4 C 4,1 km/h (1 Bft)
20.07.2019 01:20 14,5 C 13,8 C 19,3 C 77 % 1018,2 hPa 0,0 l/m 1,9 km/h (1 Bft) W-NW 292 10,5 C 14,5 C 5,0 km/h (1 Bft)
20.07.2019 01:18 14,6 C 13,8 C 19,3 C 77 % 1018,2 hPa 0,0 l/m 1,6 km/h (1 Bft) NW 315 10,6 C 14,6 C 6,4 km/h (2 Bft)
20.07.2019 01:16 14,4 C 13,7 C 19,3 C 77 % 1018,2 hPa 0,0 l/m 1,4 km/h (1 Bft) O-NO 67 10,4 C 14,4 C 6,4 km/h (2 Bft)
20.07.2019 01:14 14,5 C 13,6 C 19,3 C 77 % 1018,2 hPa 0,0 l/m 0,8 km/h (0 Bft) N 360 10,5 C 14,5 C 0,0 km/h (0 Bft)
20.07.2019 01:12 14,3 C 13,7 C 19,4 C 77 % 1018,2 hPa 0,0 l/m 0,5 km/h (0 Bft) W-NW 292 10,3 C 14,3 C 0,0 km/h (0 Bft)
20.07.2019 01:10 14,3 C 13,7 C 19,4 C 77 % 1018,2 hPa 0,0 l/m 0,5 km/h (0 Bft) N 360 10,3 C 14,3 C 2,9 km/h (1 Bft)
20.07.2019 01:08 14,3 C 13,4 C 19,4 C 77 % 1018,2 hPa 0,0 l/m 0,5 km/h (0 Bft) W 270 10,3 C 14,3 C 2,9 km/h (1 Bft)
20.07.2019 01:06 14,4 C 13,4 C 19,4 C 77 % 1018,1 hPa 0,0 l/m 0,5 km/h (0 Bft) S-SO 157 10,4 C 14,4 C 0,0 km/h (0 Bft)
20.07.2019 01:04 14,4 C 13,6 C 19,4 C 76 % 1018,1 hPa 0,0 l/m 0,8 km/h (0 Bft) SO 135 10,2 C 14,4 C 0,0 km/h (0 Bft)
20.07.2019 01:02 14,5 C 13,6 C 19,4 C 76 % 1018,1 hPa 0,0 l/m 1,0 km/h (0 Bft) NO 45 10,3 C 14,5 C 0,0 km/h (0 Bft)
20.07.2019 01:00 14,5 C 13,7 C 19,4 C 77 % 1018,1 hPa 0,0 l/m 1,0 km/h (0 Bft) N-NO 22 10,5 C 14,5 C 3,1 km/h (1 Bft)
20.07.2019 00:58 14,3 C 13,4 C 19,4 C 77 % 1018,1 hPa 0,0 l/m 1,1 km/h (1 Bft) NW 315 10,3 C 14,3 C 3,1 km/h (1 Bft)
20.07.2019 00:56 13,9 C 13,3 C 19,4 C 77 % 1018,1 hPa 0,0 l/m 1,3 km/h (1 Bft) SW 225 9,9 C 13,9 C 4,1 km/h (1 Bft)
20.07.2019 00:54 14,1 C 13,4 C 19,4 C 77 % 1018,1 hPa 0,0 l/m 0,6 km/h (0 Bft) O-NO 67 10,1 C 14,1 C 4,1 km/h (1 Bft)
20.07.2019 00:52 14,1 C 13,2 C 19,5 C 77 % 1018,1 hPa 0,0 l/m 1,0 km/h (0 Bft) N-NW 337 10,1 C 14,1 C 2,5 km/h (1 Bft)
20.07.2019 00:50 14,0 C 13,4 C 19,5 C 77 % 1018,1 hPa 0,0 l/m 1,1 km/h (1 Bft) O-NO 67 10,0 C 14,0 C 0,0 km/h (0 Bft)
20.07.2019 00:48 14,0 C 13,2 C 19,5 C 77 % 1018,1 hPa 0,0 l/m 1,1 km/h (1 Bft) O-NO 67 10,0 C 14,0 C 3,9 km/h (1 Bft)
20.07.2019 00:46 14,2 C 13,2 C 19,5 C 76 % 1018,2 hPa 0,0 l/m 1,0 km/h (0 Bft) SW 225 10,0 C 14,2 C 3,9 km/h (1 Bft)
20.07.2019 00:44 14,2 C 13,3 C 19,5 C 76 % 1018,2 hPa 0,0 l/m 0,6 km/h (0 Bft) S-SO 157 10,0 C 14,2 C 4,1 km/h (1 Bft)
20.07.2019 00:42 14,1 C 13,2 C 19,5 C 76 % 1018,2 hPa 0,0 l/m 1,0 km/h (0 Bft) O-NO 67 9,9 C 14,1 C 4,1 km/h (1 Bft)
20.07.2019 00:40 14,2 C 13,3 C 19,5 C 76 % 1018,2 hPa 0,0 l/m 0,6 km/h (0 Bft) O 90 10,0 C 14,2 C 2,3 km/h (1 Bft)
20.07.2019 00:38 14,2 C 13,4 C 19,5 C 76 % 1018,2 hPa 0,0 l/m 0,6 km/h (0 Bft) O 90 10,0 C 14,2 C 0,0 km/h (0 Bft)
20.07.2019 00:36 14,4 C 13,6 C 19,5 C 76 % 1018,2 hPa 0,0 l/m 0,6 km/h (0 Bft) O-SO 112 10,2 C 14,4 C 0,0 km/h (0 Bft)
20.07.2019 00:34 14,4 C 13,4 C 19,5 C 76 % 1018,2 hPa 0,0 l/m 0,8 km/h (0 Bft) W 270 10,2 C 14,4 C 3,9 km/h (1 Bft)
20.07.2019 00:32 14,4 C 13,2 C 19,6 C 76 % 1018,2 hPa 0,0 l/m 1,4 km/h (1 Bft) W 270 10,2 C 14,4 C 3,9 km/h (1 Bft)
20.07.2019 00:30 14,3 C 13,1 C 19,6 C 77 % 1018,2 hPa 0,0 l/m 1,1 km/h (1 Bft) W 270 10,3 C 14,3 C 0,0 km/h (0 Bft)
20.07.2019 00:28 14,2 C 12,9 C 19,6 C 77 % 1018,2 hPa 0,0 l/m 1,6 km/h (1 Bft) O-NO 67 10,2 C 14,2 C 0,0 km/h (0 Bft)
20.07.2019 00:26 14,3 C 13,0 C 19,6 C 76 % 1018,1 hPa 0,0 l/m 2,3 km/h (1 Bft) N-NW 337 10,1 C 14,3 C 3,3 km/h (1 Bft)
20.07.2019 00:24 14,4 C 13,0 C 19,6 C 76 % 1018,1 hPa 0,0 l/m 2,7 km/h (1 Bft) NW 315 10,2 C 14,4 C 6,0 km/h (2 Bft)
20.07.2019 00:22 14,4 C 13,0 C 19,6 C 76 % 1018,1 hPa 0,0 l/m 2,1 km/h (1 Bft) O-SO 112 10,2 C 14,4 C 7,9 km/h (2 Bft)
20.07.2019 00:20 14,3 C 13,1 C 19,6 C 76 % 1018,1 hPa 0,0 l/m 1,8 km/h (1 Bft) NW 315 10,1 C 14,3 C 5,4 km/h (1 Bft)
20.07.2019 00:18 14,1 C 13,0 C 19,6 C 76 % 1018,1 hPa 0,0 l/m 1,6 km/h (1 Bft) O 90 9,9 C 14,1 C 6,6 km/h (2 Bft)
20.07.2019 00:16 14,4 C 12,8 C 19,6 C 77 % 1018,1 hPa 0,0 l/m 1,4 km/h (1 Bft) W-NW 292 10,4 C 14,4 C 6,6 km/h (2 Bft)
20.07.2019 00:14 14,5 C 12,7 C 19,7 C 77 % 1018,1 hPa 0,0 l/m 1,3 km/h (1 Bft) W-NW 292 10,5 C 14,5 C 2,9 km/h (1 Bft)
20.07.2019 00:12 14,0 C 12,7 C 19,7 C 77 % 1018,1 hPa 0,0 l/m 1,3 km/h (1 Bft) N 360 10,0 C 14,0 C 1,9 km/h (1 Bft)
20.07.2019 00:10 13,7 C 13,1 C 19,7 C 77 % 1018,1 hPa 0,0 l/m 0,2 km/h (0 Bft) W-NW 292 9,7 C 13,7 C 1,9 km/h (1 Bft)
20.07.2019 00:08 13,7 C 13,1 C 19,7 C 77 % 1018,1 hPa 0,0 l/m 0,2 km/h (0 Bft) W-NW 292 9,7 C 13,7 C 1,9 km/h (1 Bft)
20.07.2019 00:06 13,7 C 13,1 C 19,7 C 77 % 1018,1 hPa 0,0 l/m 0,2 km/h (0 Bft) W-NW 292 9,7 C 13,7 C 1,9 km/h (1 Bft)
20.07.2019 00:04 13,7 C 13,1 C 19,7 C 77 % 1018,1 hPa 0,0 l/m 0,2 km/h (0 Bft) W-NW 292 9,7 C 13,7 C 1,9 km/h (1 Bft)
20.07.2019 00:02 13,7 C 13,1 C 19,7 C 77 % 1018,1 hPa 0,0 l/m 0,2 km/h (0 Bft) W-NW 292 9,7 C 13,7 C 1,9 km/h (1 Bft)
20.07.2019 00:00 13,7 C 13,2 C 19,7 C 77 % 1018,1 hPa 0,0 l/m 0,2 km/h (0 Bft) O-NO 67 9,7 C 13,7 C 0,0 km/h (0 Bft)
_ Min-Zeit 05:28 05:06 07:08 09:32 04:28 - 04:50 - - 05:28 05:28 00:00
Minimum _ 12,2 C 10,6 C 18,0 C 58 % 1017,2 hPa - 0,0 km/h (0 Bft) - - 9,2 C 12,2 C 0,0 km/h (0 Bft)
_ Max-Zeit 09:28 09:30 00:00 05:38 09:28 00:00 03:24 - - 09:24 09:28 03:18
Maximum _ 25,1 C 28,2 C 19,7 C 83 % 1018,3 hPa 0,0 l/m 6,9 km/h
N-NO (2 Bft)
- - 16,6 C 25,1 C 14,3 km/h
O-NO (3 Bft)
Durchschnitt _ 15,2 C 15,3 C 18,6 C 77 % 1017,8 hPa #0,0 l/m 0,7 km/h (0 Bft) O-NO - 11,3 C 15,2 C 1,7 km/h (1 Bft)